STARLINK-32398, 61624

Orbit data source: Space-Track

STARLINK-32398, 61624 is a payload satellite owned by SpaceX/Seattle (US) in LEO that was launched on Wed, 23 Oct 2024 UTC via an FALCON 9 launch vehicle from the Air Force Eastern Test Range (AFETR). Payload-class satellites include a variety of spacecraft equipped with specific instruments for various scientific and technological missions. These include communications satellites like Starlink; space stations such as the ISS; scientific satellites like the Hubble; Earth observation satellites from companies like Planet Labs, Umbra, and HawkEye 360; GPS; miniature CubeSats for education and research; and military/defense satellites.

Loading next visibility...
Identifier
61624, 2024-191D
Orbit
LEO
Country
Flag of USUS
Related business
Manufacturer
SpaceX/Seattle
Mission
Operational Commercial Communications
Bus & Motor
STARLINK V2M, Unknown motor
Mass
730 kg wet, ~700 kg dry
Launch date (UTC)
2024-10-23 (1 year ago)
Launch vehicle
FALCON 9
Launch site
Air Force Eastern Test Range (AFETR)
Object type
Payload
Rocket body
Debris
Shape & HBR
Box + 2 Pan, 17.7 m
Radar Cross Section
33.884 m², Large (>1 m²)

Expand to show TLE details & history
Last TLE update: 16 hours ago

TLE from 16 hours ago
0 STARLINK-32398
1 61624U 24191D   25293.81212692 -.00000753  00000-0 -17860-4 0  9991
2 61624  43.0027 224.4844 0000462 200.2756 159.8077 15.27560030 56141
Epoch: 2025-10-20T19:29Z
TLE epoch observation values (Epoch: 2025-10-20T19:29:27.765Z)
Latitude
-0.00006°
Longitude
-97.39043°
Altitude
483.182 km
Speed
7.625 km/s
True Right ascension
14h 57m 56s
True Declination
0° 00' 00"
Sunlit
Object was in daylight at epoch
Visualization orbit readout
Latitude
Unknown
Longitude
Unknown
Altitude
Unknown
Speed
Unknown
Apparent Right ascension
Unknown
Apparent Declination
Unknown
Sunlit
N/A
Visualization observer readout
Local Sidereal Time
06:30:28
Azimuth
Unknown
Elevation
Unknown
Doppler factor
Unknown
Orbital elements
Apogee altitude
485.371 km
Perigee altitude
484.737 km
Semi-major axis
6,863.191 km
Eccentricity
0.00005
Inclination
43.0027°
RAAN
224.4844°
Arg. of periapsis
200.2756°
True anomaly
159.80953°
Mean anomaly
159.8077°
Eccentric anomaly
159.80861°
Mean motion
3.81728 °/min
Orbital period
94.31 mins
BSTAR
-0.00001786
Loading maneuver chart data...
Computing Atmospheric mass density...
Loading historical data...
Loading historical data...
Loading historical data...
Loading historical data...
Loading historical data...
Loading historical data...
Loading historical data...

Documentation

Showing up to 5 results
|